RA1AMW-13 Saint Petersburg RU current weather conditions

sailwx.info

Wind from 198 at 6 knots gusting 13

Air temperature -1.7° C
Dewpoint -1.8° C

Last reported at 2014-Nov-26 02:49 UTC.
Time now 2014-Nov-26 04:01 UTC

Location: N 60°01' E 030°18'.
View on Google Maps.

See reports from other nearby stations

  
Tides and Currents Weather Stations Pressure Air Temp Water Temp Dewpoint Dewpoint Depression Visibility Wind Speed Wind Dir Waves Ship Positions
date/time (UTC)wind fromknots sea level pressurealtimeterstation pressurevisibilityair tempwater tempwave heightnotes
2014-Nov-26 02:49 198 6 gusting 13 -1.7
2014-Nov-26 02:29 196 7 gusting 15 -1.7
2014-Nov-26 02:19 204 6 gusting 15 -1.7
2014-Nov-26 01:59 197 6 gusting 14 -1.7
2014-Nov-26 01:49 189 6 gusting 14 -1.7
2014-Nov-26 01:29 199 6 gusting 17 -1.7
2014-Nov-26 01:19 210 8 gusting 14 -1.7
2014-Nov-26 00:59 214 6 gusting 17 -1.7
2014-Nov-26 00:49 193 6 gusting 15 -1.7
2014-Nov-26 00:29 191 7 gusting 18 -1.7
2014-Nov-26 00:19 199 6 gusting 15 -1.7
2014-Nov-25 23:59 198 6 gusting 14 -1.7
2014-Nov-25 23:49 210 6 gusting 14 -1.7
2014-Nov-25 23:39 209 6 gusting 14 -1.7
2014-Nov-25 23:29 207 6 gusting 13 -2.2
2014-Nov-25 23:19 194 7 gusting 14 -1.7
2014-Nov-25 23:09 219 6 gusting 17 -1.7
2014-Nov-25 22:59 228 6 gusting 14 -1.7
2014-Nov-25 22:49 196 6 gusting 13 -2.2
2014-Nov-25 22:29 194 6 gusting 13 -1.7
2014-Nov-25 22:19 182 5 gusting 12 -1.7
2014-Nov-25 21:59 202 6 gusting 13 -1.7
2014-Nov-25 21:49 213 6 gusting 14 -1.7
2014-Nov-25 21:29 204 6 gusting 15 -1.7
2014-Nov-25 21:19 200 5 gusting 14 -1.7
2014-Nov-25 20:59 212 6 gusting 13 -1.7
2014-Nov-25 20:49 186 6 gusting 11 -1.7
2014-Nov-25 20:29 202 6 gusting 13 -2.2
2014-Nov-25 20:19 198 4 gusting 12 -2.2
2014-Nov-25 19:59 200 6 gusting 13 -2.2
2014-Nov-25 19:49 193 7 gusting 14 -2.2
2014-Nov-25 19:39 190 6 gusting 14 -2.2
2014-Nov-25 19:29 193 8 gusting 14 -2.2
2014-Nov-25 19:19 187 6 gusting 13 -1.7
2014-Nov-25 19:09 216 7 gusting 13 -1.7
2014-Nov-25 18:59 205 8 gusting 14 -1.7
2014-Nov-25 18:49 194 6 gusting 13 -2.2
2014-Nov-25 18:29 188 6 gusting 14 -2.2
2014-Nov-25 18:19 209 6 gusting 13 -2.2
2014-Nov-25 17:59 197 7 gusting 14 -2.2
2014-Nov-25 17:49 189 6 gusting 12 -2.2
2014-Nov-25 17:39 182 6 gusting 13 -2.2
2014-Nov-25 17:29 181 6 gusting 13 -2.8
2014-Nov-25 17:19 204 6 gusting 12 -2.8
2014-Nov-25 17:09 215 6 gusting 11 -2.8
2014-Nov-25 16:59 219 7 gusting 14 -2.8
2014-Nov-25 16:49 211 7 gusting 18 -2.8
2014-Nov-25 16:39 187 6 gusting 18 -2.8
2014-Nov-25 16:29 189 10 gusting 16 -2.8
2014-Nov-25 16:19 198 6 gusting 15 -3.3
2014-Nov-25 16:09 198 6 gusting 15 -2.8
2014-Nov-25 15:59 209 6 gusting 18 -3.3
2014-Nov-25 15:49 215 8 gusting 15 -3.3
2014-Nov-25 15:39 196 6 gusting 18 -3.3
2014-Nov-25 15:29 212 9 gusting 19 -2.8
2014-Nov-25 15:19 179 6 gusting 15 -3.3
2014-Nov-25 15:09 219 9 gusting 14 -3.3
2014-Nov-25 14:59 195 8 gusting 19 -3.3
2014-Nov-25 14:49 211 8 gusting 18 -3.3
2014-Nov-25 14:29 197 6 gusting 17 -3.3
2014-Nov-25 14:19 207 6 gusting 15 -3.3
2014-Nov-25 13:59 219 6 gusting 16 -3.3
2014-Nov-25 13:49 184 6 gusting 13 -3.9
2014-Nov-25 13:29 188 7 gusting 14 -3.9
2014-Nov-25 13:19 178 6 gusting 13 -3.9
2014-Nov-25 12:59 204 10 gusting 15 -3.9
2014-Nov-25 12:49 190 8 gusting 14 -3.9
2014-Nov-25 12:29 209 6 gusting 14 -3.9
2014-Nov-25 12:19 176 6 gusting 14 -3.3
2014-Nov-25 11:59 182 5 gusting 11 -3.3
2014-Nov-25 11:49 202 7 gusting 15 -3.9
2014-Nov-25 11:29 184 6 gusting 13 -3.9
2014-Nov-25 11:19 187 7 gusting 13 -3.9
2014-Nov-25 10:59 200 6 gusting 14 -3.9
2014-Nov-25 10:49 197 6 gusting 14 -4.4
2014-Nov-25 10:29 181 5 gusting 12 -3.9
2014-Nov-25 10:19 219 5 gusting 14 -4.4
2014-Nov-25 09:59 183 8 gusting 18 -4.4
2014-Nov-25 09:49 187 7 gusting 17 -4.4
2014-Nov-25 09:29 199 12 gusting 19 -4.4
2014-Nov-25 09:19 187 11 gusting 18 -4.4
2014-Nov-25 08:59 170 8 gusting 16 -4.4
2014-Nov-25 08:49 158 10 gusting 19 -5.0